| time (UTC) | temp F | wind direction | speed MPH | gust MPH | rain 1hr in | rain 24hr in | rain mn in | humidity % | barometer mb |
| 20260831082426 | 75 | 157 | 0.0 | 0.0 | 0.00 | 0.00 | 0.00 | 13 | 1012.0 |
| 20260831081426 | 74 | 143 | 0.0 | 0.0 | 0.00 | 0.00 | 0.00 | 13 | 1012.0 |
| 20260831080923 | 74 | 170 | 0.0 | 0.0 | 0.00 | 0.00 | 0.00 | 13 | 1012.0 |
| 20260831080423 | 73 | 163 | 0.0 | 0.0 | 0.00 | 0.00 | 0.00 | 13 | 1012.0 |
| 20260831075927 | 73 | 159 | 0.0 | 0.0 | 0.00 | 0.00 | 0.00 | 13 | 1012.0 |
| 20260831075423 | 73 | 146 | 0.0 | 0.0 | 0.00 | 0.00 | 0.00 | 13 | 1012.0 |
| 20260831074923 | 72 | 143 | 0.0 | 0.0 | 0.00 | 0.00 | 0.00 | 13 | 1012.0 |
| 20260831074426 | 72 | 145 | 0.0 | 0.0 | 0.00 | 0.00 | 0.00 | 14 | 1012.0 |
| 20260831073923 | 71 | 168 | 0.0 | 0.0 | 0.00 | 0.00 | 0.00 | 14 | 1012.0 |
| 20260831073423 | 71 | 168 | 0.0 | 0.0 | 0.00 | 0.00 | 0.00 | 14 | 1012.0 |
| 20260831072926 | 71 | 168 | 0.0 | 0.0 | 0.00 | 0.00 | 0.00 | 14 | 1012.0 |
| 20260831072426 | 71 | 163 | 0.0 | 0.0 | 0.00 | 0.00 | 0.00 | 14 | 1012.0 |
| 20260831071926 | 70 | 165 | 0.0 | 0.0 | 0.00 | 0.00 | 0.00 | 14 | 1012.0 |
| 20260831071423 | 70 | 168 | 0.0 | 0.0 | 0.00 | 0.00 | 0.00 | 14 | 1012.0 |
| 20260831070426 | 69 | 169 | 0.0 | 0.0 | 0.00 | 0.00 | 0.00 | 14 | 1012.0 |
| 20260831065923 | 69 | 142 | 0.0 | 0.0 | 0.00 | 0.00 | 0.00 | 14 | 1012.0 |
| 20260831065430 | 69 | 145 | 0.0 | 0.0 | 0.00 | 0.00 | 0.00 | 14 | 1012.0 |
| 20260831064923 | 68 | 147 | 0.0 | 0.0 | 0.00 | 0.00 | 0.00 | 15 | 1012.0 |
| 20260831063926 | 68 | 147 | 0.0 | 0.0 | 0.00 | 0.00 | 0.00 | 15 | 1012.0 |
| 20260831063423 | 67 | 162 | 0.0 | 0.0 | 0.00 | 0.00 | 0.00 | 12 | 1012.0 |
| 20260831062926 | 67 | 143 | 0.0 | 0.0 | 0.00 | 0.00 | 0.00 | 12 | 1012.0 |
| 20260831062422 | 66 | 168 | 0.0 | 0.0 | 0.00 | 0.00 | 0.00 | 12 | 1012.0 |
| 20260831061927 | 66 | 152 | 0.0 | 0.0 | 0.00 | 0.00 | 0.00 | 12 | 1012.0 |
| 20260831061423 | 66 | 162 | 0.0 | 0.0 | 0.00 | 0.00 | 0.00 | 10 | 1012.0 |
| 20260831060926 | 65 | 147 | 0.0 | 0.0 | 0.00 | 0.00 | 0.00 | 10 | 1012.0 |
| 20260831060426 | 65 | 169 | 0.0 | 0.0 | 0.00 | 0.00 | 0.00 | 10 | 1012.0 |
| 20260831055423 | 64 | 148 | 0.0 | 0.0 | 0.00 | 0.00 | 0.00 | 10 | 1012.0 |
| 20260831054923 | 63 | 156 | 0.0 | 0.0 | 0.00 | 0.00 | 0.00 | 10 | 1012.0 |
| 20260831054423 | 63 | 144 | 0.0 | 0.0 | 0.00 | 0.00 | 0.00 | 10 | 1012.0 |
| 20260831053926 | 63 | 167 | 0.0 | 0.0 | 0.00 | 0.00 | 0.00 | 10 | 1012.0 |
| 20260831053426 | 63 | 156 | 0.0 | 0.0 | 0.00 | 0.00 | 0.00 | 10 | 1012.0 |
| 20260831052922 | 62 | 156 | 0.0 | 0.0 | 0.00 | 0.00 | 0.00 | 10 | 1012.0 |
| 20260831052423 | 63 | 151 | 0.0 | 0.0 | 0.00 | 0.00 | 0.00 | 10 | 1012.0 |
| 20260831051923 | 63 | 169 | 0.0 | 0.0 | 0.00 | 0.00 | 0.00 | 10 | 1012.0 |
| 20260831051423 | 63 | 143 | 0.0 | 0.0 | 0.00 | 0.00 | 0.00 | 10 | 1012.0 |
| 20260831045926 | 62 | 166 | 0.0 | 0.0 | 0.00 | 0.00 | 0.00 | 10 | 1011.0 |
| 20260831045423 | 62 | 157 | 0.0 | 0.0 | 0.00 | 0.00 | 0.00 | 10 | 1012.0 |
| 20260831044926 | 62 | 143 | 0.0 | 0.0 | 0.00 | 0.00 | 0.00 | 10 | 1012.0 |
| 20260831044427 | 62 | 168 | 0.0 | 0.0 | 0.00 | 0.00 | 0.00 | 10 | 1012.0 |
| 20260831043422 | 62 | 156 | 0.0 | 0.0 | 0.00 | 0.00 | 0.00 | 10 | 1011.0 |
| 20260831042927 | 62 | 143 | 0.0 | 0.0 | 0.00 | 0.00 | 0.00 | 25 | 1011.0 |
| 20260831041924 | 62 | 161 | 0.0 | 0.0 | 0.00 | 0.00 | 0.00 | 29 | 1011.0 |
| 20260831041424 | 62 | 167 | 0.0 | 0.0 | 0.00 | 0.00 | 0.00 | 33 | 1011.0 |
| 20260831040924 | 63 | 155 | 0.0 | 0.0 | 0.00 | 0.00 | 0.00 | 32 | 1012.0 |
| 20260831040426 | 63 | 168 | 0.0 | 0.0 | 0.00 | 0.00 | 0.00 | 29 | 1012.0 |
| 20260831035926 | 63 | 161 | 0.0 | 0.0 | 0.00 | 0.00 | 0.00 | 28 | 1012.0 |
| 20260831035424 | 63 | 166 | 0.0 | 0.0 | 0.00 | 0.00 | 0.00 | 27 | 1012.0 |
| 20260831034927 | 63 | 149 | 0.0 | 0.0 | 0.00 | 0.00 | 0.00 | 25 | 1012.0 |
| 20260831034424 | 63 | 143 | 0.0 | 0.0 | 0.00 | 0.00 | 0.00 | 20 | 1012.0 |
| 20260831033926 | 64 | 156 | 0.0 | 0.0 | 0.00 | 0.00 | 0.00 | 10 | 1012.0 |
| 20260831033424 | 64 | 156 | 0.0 | 0.0 | 0.00 | 0.00 | 0.00 | 10 | 1012.0 |
| 20260831032926 | 64 | 155 | 0.0 | 0.0 | 0.00 | 0.00 | 0.00 | 10 | 1012.0 |
| 20260831032426 | 64 | 149 | 0.0 | 0.0 | 0.00 | 0.00 | 0.00 | 10 | 1012.0 |
| 20260831031925 | 64 | 160 | 0.0 | 0.0 | 0.00 | 0.00 | 0.00 | 10 | 1012.0 |
| 20260831031424 | 64 | 169 | 0.0 | 0.0 | 0.00 | 0.00 | 0.00 | 10 | 1012.0 |
| 20260831030926 | 64 | 143 | 0.0 | 0.0 | 0.00 | 0.00 | 0.00 | 10 | 1012.0 |
| 20260831030424 | 64 | 160 | 0.0 | 0.0 | 0.00 | 0.00 | 0.00 | 10 | 1012.0 |
| 20260831025924 | 64 | 169 | 0.0 | 0.0 | 0.00 | 0.00 | 0.00 | 10 | 1012.0 |
| 20260831025424 | 64 | 169 | 0.0 | 0.0 | 0.00 | 0.00 | 0.00 | 10 | 1012.0 |
| 20260831024425 | 64 | 169 | 0.0 | 0.0 | 0.00 | 0.00 | 0.00 | 10 | 1012.0 |
| 20260831023925 | 64 | 158 | 0.0 | 0.0 | 0.00 | 0.00 | 0.00 | 10 | 1012.0 |
| 20260831023427 | 64 | 162 | 0.0 | 0.0 | 0.00 | 0.00 | 0.00 | 10 | 1012.0 |
| 20260831022422 | 64 | 142 | 0.0 | 0.0 | 0.00 | 0.00 | 0.00 | 10 | 1012.0 |
| 20260831021926 | 64 | 167 | 0.0 | 0.0 | 0.00 | 0.00 | 0.00 | 10 | 1012.0 |
| 20260831021425 | 64 | 143 | 0.0 | 0.0 | 0.00 | 0.00 | 0.00 | 10 | 1012.0 |
| 20260831020926 | 64 | 161 | 0.0 | 0.0 | 0.00 | 0.00 | 0.00 | 10 | 1012.0 |
| 20260831020426 | 64 | 170 | 0.0 | 0.0 | 0.00 | 0.00 | 0.00 | 10 | 1012.0 |
| 20260831015926 | 64 | 166 | 0.0 | 0.0 | 0.00 | 0.00 | 0.00 | 10 | 1012.0 |
| 20260831015426 | 64 | 162 | 0.0 | 0.0 | 0.00 | 0.00 | 0.00 | 10 | 1012.0 |
| 20260831014926 | 64 | 152 | 0.0 | 0.0 | 0.00 | 0.00 | 0.00 | 10 | 1012.0 |
| 20260831014427 | 64 | 141 | 0.0 | 0.0 | 0.00 | 0.00 | 0.00 | 10 | 1012.0 |
| 20260831013926 | 64 | 144 | 0.0 | 0.0 | 0.00 | 0.00 | 0.00 | 10 | 1012.0 |
| 20260831013422 | 65 | 164 | 0.0 | 0.0 | 0.00 | 0.00 | 0.00 | 10 | 1012.0 |
| 20260831012922 | 65 | 157 | 0.0 | 0.0 | 0.00 | 0.00 | 0.00 | 10 | 1012.0 |
| 20260831012427 | 65 | 162 | 0.0 | 0.0 | 0.00 | 0.00 | 0.00 | 10 | 1012.0 |
| 20260831011922 | 65 | 143 | 0.0 | 0.0 | 0.00 | 0.00 | 0.00 | 10 | 1012.0 |
| 20260831011422 | 65 | 165 | 0.0 | 0.0 | 0.00 | 0.00 | 0.00 | 10 | 1012.0 |
| 20260831010924 | 65 | 146 | 0.0 | 0.0 | 0.00 | 0.00 | 0.00 | 10 | 1012.0 |
| 20260831005926 | 65 | 149 | 0.0 | 0.0 | 0.00 | 0.00 | 0.00 | 10 | 1012.0 |
| 20260831005422 | 66 | 162 | 0.0 | 0.0 | 0.00 | 0.00 | 0.00 | 10 | 1012.0 |
| 20260831004922 | 66 | 144 | 0.0 | 0.0 | 0.00 | 0.00 | 0.00 | 10 | 1012.0 |
| 20260831004422 | 66 | 148 | 0.0 | 0.0 | 0.00 | 0.00 | 0.00 | 10 | 1012.0 |
| 20260831003924 | 66 | 159 | 0.0 | 0.0 | 0.00 | 0.00 | 0.00 | 10 | 1012.0 |
| 20260831003424 | 66 | 152 | 0.0 | 0.0 | 0.00 | 0.00 | 0.00 | 10 | 1012.0 |
| 20260831002922 | 66 | 147 | 0.0 | 0.0 | 0.00 | 0.00 | 0.00 | 10 | 1012.0 |
| 20260831001424 | 66 | 169 | 0.0 | 0.0 | 0.00 | 0.00 | 0.00 | 43 | 1012.0 |
| 20260831000926 | 66 | 153 | 0.0 | 0.0 | 0.00 | 0.00 | 0.00 | 50 | 1012.0 |
| 20260831000425 | 66 | 170 | 0.0 | 0.0 | 0.00 | 0.00 | 0.00 | 52 | 1012.0 |
| 20260830235922 | 66 | 143 | 0.0 | 0.0 | 0.00 | 0.00 | 0.00 | 51 | 1012.0 |
| 20260830235422 | 66 | 163 | 0.0 | 0.0 | 0.00 | 0.00 | 0.00 | 49 | 1012.0 |
| 20260830234926 | 67 | 154 | 0.0 | 0.0 | 0.00 | 0.00 | 0.00 | 58 | 1012.0 |
| 20260830234422 | 67 | 152 | 0.0 | 0.0 | 0.00 | 0.00 | 0.00 | 58 | 1012.0 |
| 20260830233926 | 67 | 155 | 0.0 | 0.0 | 0.00 | 0.00 | 0.00 | 57 | 1012.0 |
| 20260830233424 | 67 | 146 | 0.0 | 0.0 | 0.00 | 0.00 | 0.00 | 57 | 1012.0 |
| 20260830232925 | 67 | 149 | 0.0 | 0.0 | 0.00 | 0.00 | 0.00 | 56 | 1012.0 |
| 20260830232426 | 67 | 170 | 0.0 | 0.0 | 0.00 | 0.00 | 0.00 | 56 | 1012.0 |
| 20260830231924 | 67 | 164 | 0.0 | 0.0 | 0.00 | 0.00 | 0.00 | 57 | 1012.0 |
| 20260830231424 | 68 | 169 | 0.0 | 0.0 | 0.00 | 0.00 | 0.00 | 57 | 1012.0 |
| 20260830230925 | 68 | 143 | 0.0 | 0.0 | 0.00 | 0.00 | 0.00 | 54 | 1012.0 |
| 20260830230424 | 68 | 148 | 0.0 | 0.0 | 0.00 | 0.00 | 0.00 | 55 | 1012.0 |
| 20260830225924 | 68 | 143 | 0.0 | 0.0 | 0.00 | 0.00 | 0.00 | 53 | 1012.0 |
| 20260830225422 | 68 | 164 | 0.0 | 0.0 | 0.00 | 0.00 | 0.00 | 53 | 1013.0 |
| 20260830224924 | 68 | 160 | 0.0 | 0.0 | 0.00 | 0.00 | 0.00 | 51 | 1013.0 |
| 20260830224426 | 68 | 156 | 0.0 | 0.0 | 0.00 | 0.00 | 0.00 | 52 | 1013.0 |
| 20260830223924 | 68 | 155 | 0.0 | 0.0 | 0.00 | 0.00 | 0.00 | 50 | 1013.0 |
| 20260830223425 | 68 | 159 | 0.0 | 0.0 | 0.00 | 0.00 | 0.00 | 47 | 1013.0 |
| 20260830222926 | 68 | 159 | 0.0 | 0.0 | 0.00 | 0.00 | 0.00 | 44 | 1013.0 |
| 20260830222422 | 68 | 169 | 0.0 | 0.0 | 0.00 | 0.00 | 0.00 | 43 | 1012.0 |
| 20260830221924 | 68 | 144 | 0.0 | 0.0 | 0.00 | 0.00 | 0.00 | 43 | 1012.0 |
| 20260830221424 | 68 | 164 | 0.0 | 0.0 | 0.00 | 0.00 | 0.00 | 28 | 1012.0 |
| 20260830220924 | 68 | 142 | 0.0 | 0.0 | 0.00 | 0.00 | 0.00 | 10 | 1012.0 |
| 20260830220422 | 68 | 149 | 0.0 | 0.0 | 0.00 | 0.00 | 0.00 | 10 | 1012.0 |
| 20260830215422 | 68 | 160 | 0.0 | 0.0 | 0.00 | 0.00 | 0.00 | 10 | 1013.0 |
| 20260830214924 | 68 | 161 | 0.0 | 0.0 | 0.00 | 0.00 | 0.00 | 10 | 1013.0 |
| 20260830214424 | 68 | 152 | 0.0 | 0.0 | 0.00 | 0.00 | 0.00 | 10 | 1013.0 |
| 20260830213924 | 68 | 168 | 0.0 | 0.0 | 0.00 | 0.00 | 0.00 | 10 | 1013.0 |
| 20260830213422 | 69 | 154 | 0.0 | 0.0 | 0.00 | 0.00 | 0.00 | 10 | 1013.0 |
| 20260830212922 | 69 | 157 | 0.0 | 0.0 | 0.00 | 0.00 | 0.00 | 10 | 1013.0 |
| 20260830212426 | 69 | 142 | 0.0 | 0.0 | 0.00 | 0.00 | 0.00 | 10 | 1013.0 |
| 20260830211426 | 69 | 147 | 0.0 | 0.0 | 0.00 | 0.00 | 0.00 | 10 | 1013.0 |
| 20260830210922 | 69 | 148 | 0.0 | 0.0 | 0.00 | 0.00 | 0.00 | 10 | 1013.0 |
| 20260830210422 | 69 | 145 | 0.0 | 0.0 | 0.00 | 0.00 | 0.00 | 10 | 1013.0 |
| 20260830205922 | 69 | 149 | 0.0 | 0.0 | 0.00 | 0.00 | 0.00 | 10 | 1013.0 |
| 20260830205427 | 69 | 145 | 0.0 | 0.0 | 0.00 | 0.00 | 0.00 | 10 | 1013.0 |
| 20260830204425 | 69 | 142 | 0.0 | 0.0 | 0.00 | 0.00 | 0.00 | 10 | 1013.0 |
| 20260830203926 | 69 | 155 | 0.0 | 0.0 | 0.00 | 0.00 | 0.00 | 10 | 1013.0 |
| 20260830202924 | 69 | 144 | 0.0 | 0.0 | 0.00 | 0.00 | 0.00 | 10 | 1013.0 |
| 20260830202424 | 69 | 161 | 0.0 | 0.0 | 0.00 | 0.00 | 0.00 | 10 | 1013.0 |
| 20260830201425 | 70 | 167 | 0.0 | 0.0 | 0.00 | 0.00 | 0.00 | 10 | 1013.0 |
| 20260830200427 | 70 | 167 | 0.0 | 0.0 | 0.00 | 0.00 | 0.00 | 10 | 1013.0 |
| 20260830194925 | 70 | 157 | 0.0 | 0.0 | 0.00 | 0.00 | 0.00 | 10 | 1013.0 |
| 20260830193924 | 70 | 143 | 0.0 | 0.0 | 0.00 | 0.00 | 0.00 | 10 | 1013.0 |
| 20260830193424 | 70 | 166 | 0.0 | 0.0 | 0.00 | 0.00 | 0.00 | 10 | 1013.0 |
| 20260830192927 | 70 | 158 | 0.0 | 0.0 | 0.00 | 0.00 | 0.00 | 10 | 1013.0 |
| 20260830192426 | 70 | 152 | 0.0 | 0.0 | 0.00 | 0.00 | 0.00 | 10 | 1013.0 |
| 20260830191925 | 69 | 156 | 0.0 | 0.0 | 0.00 | 0.00 | 0.00 | 10 | 1013.0 |
| 20260830191427 | 70 | 144 | 0.0 | 0.0 | 0.00 | 0.00 | 0.00 | 10 | 1013.0 |
| 20260830190925 | 70 | 169 | 0.0 | 0.0 | 0.00 | 0.00 | 0.00 | 10 | 1013.0 |
| 20260830185926 | 70 | 157 | 0.0 | 0.0 | 0.00 | 0.00 | 0.00 | 10 | 1013.0 |
| 20260830185430 | 70 | 143 | 0.0 | 0.0 | 0.00 | 0.00 | 0.00 | 10 | 1013.0 |
| 20260830184425 | 70 | 164 | 0.0 | 0.0 | 0.00 | 0.00 | 0.00 | 10 | 1013.0 |
| 20260830183924 | 70 | 147 | 0.0 | 0.0 | 0.00 | 0.00 | 0.00 | 10 | 1012.0 |
| 20260830182926 | 71 | 146 | 0.0 | 0.0 | 0.00 | 0.00 | 0.00 | 10 | 1012.0 |
| 20260830181922 | 71 | 147 | 0.0 | 0.0 | 0.00 | 0.00 | 0.00 | 10 | 1012.0 |
| 20260830181426 | 71 | 168 | 0.0 | 0.0 | 0.00 | 0.00 | 0.00 | 10 | 1012.0 |
| 20260830180424 | 71 | 161 | 0.0 | 0.0 | 0.00 | 0.00 | 0.00 | 10 | 1012.0 |
| 20260830175924 | 72 | 161 | 0.0 | 0.0 | 0.00 | 0.00 | 0.00 | 10 | 1012.0 |
| 20260830175422 | 72 | 141 | 0.0 | 0.0 | 0.00 | 0.00 | 0.00 | 10 | 1012.0 |
| 20260830174924 | 73 | 160 | 0.0 | 0.0 | 0.00 | 0.00 | 0.00 | 10 | 1012.0 |
| 20260830174426 | 73 | 143 | 0.0 | 0.0 | 0.00 | 0.00 | 0.00 | 10 | 1012.0 |
| 20260830173924 | 74 | 145 | 0.0 | 0.0 | 0.00 | 0.00 | 0.00 | 10 | 1012.0 |
| 20260830173426 | 74 | 153 | 0.0 | 0.0 | 0.00 | 0.00 | 0.00 | 10 | 1012.0 |
| 20260830172925 | 74 | 167 | 0.0 | 0.0 | 0.00 | 0.00 | 0.00 | 10 | 1012.0 |
| 20260830172422 | 75 | 152 | 0.0 | 0.0 | 0.00 | 0.00 | 0.00 | 10 | 1012.0 |
| 20260830171922 | 76 | 163 | 0.0 | 0.0 | 0.00 | 0.00 | 0.00 | 10 | 1012.0 |
| 20260830171424 | 77 | 165 | 0.0 | 0.0 | 0.00 | 0.00 | 0.00 | 10 | 1012.0 |
| 20260830170924 | 77 | 141 | 0.0 | 0.0 | 0.00 | 0.00 | 0.00 | 13 | 1012.0 |
| 20260830170422 | 78 | 142 | 0.0 | 0.0 | 0.00 | 0.00 | 0.00 | 12 | 1012.0 |
| 20260830165922 | 78 | 145 | 0.0 | 0.0 | 0.00 | 0.00 | 0.00 | 12 | 1012.0 |
| 20260830165503 | 79 | 142 | 0.0 | 0.0 | 0.00 | 0.00 | 0.00 | 12 | 1012.0 |
| 20260830165422 | 79 | 142 | 0.0 | 0.0 | 0.00 | 0.00 | 0.00 | 12 | 1012.0 |
| 20260830164922 | 79 | 168 | 0.0 | 0.0 | 0.00 | 0.00 | 0.00 | 12 | 1012.0 |
| 20260830164426 | 79 | 165 | 0.0 | 0.0 | 0.00 | 0.00 | 0.00 | 12 | 1012.0 |
| 20260830163926 | 79 | 141 | 0.0 | 0.0 | 0.00 | 0.00 | 0.00 | 12 | 1012.0 |
| 20260830163422 | 79 | 164 | 0.0 | 0.0 | 0.00 | 0.00 | 0.00 | 12 | 1012.0 |
| 20260830162922 | 79 | 150 | 0.0 | 0.0 | 0.00 | 0.00 | 0.00 | 12 | 1012.0 |
| 20260830162422 | 79 | 162 | 0.0 | 0.0 | 0.00 | 0.00 | 0.00 | 12 | 1012.0 |
| 20260830161422 | 80 | 141 | 0.0 | 0.0 | 0.00 | 0.00 | 0.00 | 12 | 1012.0 |
| 20260830160926 | 82 | 160 | 0.0 | 0.0 | 0.00 | 0.00 | 0.00 | 11 | 1012.0 |
| 20260830160422 | 84 | 148 | 0.0 | 0.0 | 0.00 | 0.00 | 0.00 | 11 | 1012.0 |
| 20260830155925 | 84 | 168 | 0.0 | 0.0 | 0.00 | 0.00 | 0.00 | 11 | 1012.0 |
| 20260830154924 | 85 | 152 | 0.0 | 0.0 | 0.00 | 0.00 | 0.00 | 11 | 1012.0 |
| 20260830154425 | 85 | 149 | 0.0 | 0.0 | 0.00 | 0.00 | 0.00 | 11 | 1012.0 |
| 20260830153922 | 86 | 163 | 0.0 | 0.0 | 0.00 | 0.00 | 0.00 | 11 | 1012.0 |
| 20260830153424 | 86 | 142 | 0.0 | 0.0 | 0.00 | 0.00 | 0.00 | 11 | 1012.0 |
| 20260830152925 | 85 | 156 | 0.0 | 0.0 | 0.00 | 0.00 | 0.00 | 11 | 1012.0 |
| 20260830152422 | 85 | 161 | 0.0 | 0.0 | 0.00 | 0.00 | 0.00 | 11 | 1013.0 |
| 20260830151922 | 84 | 142 | 0.0 | 0.0 | 0.00 | 0.00 | 0.00 | 11 | 1013.0 |
| 20260830151422 | 84 | 145 | 0.0 | 0.0 | 0.00 | 0.00 | 0.00 | 11 | 1013.0 |
| 20260830150925 | 84 | 167 | 0.0 | 0.0 | 0.00 | 0.00 | 0.00 | 11 | 1013.0 |
| 20260830150422 | 84 | 144 | 0.0 | 0.0 | 0.00 | 0.00 | 0.00 | 11 | 1013.0 |
| 20260830145922 | 84 | 144 | 0.0 | 0.0 | 0.00 | 0.00 | 0.00 | 11 | 1013.0 |
| 20260830144925 | 85 | 169 | 0.0 | 0.0 | 0.00 | 0.00 | 0.00 | 11 | 1013.0 |
| 20260830144425 | 85 | 156 | 0.0 | 0.0 | 0.00 | 0.00 | 0.00 | 11 | 1013.0 |
| 20260830143922 | 85 | 168 | 0.0 | 0.0 | 0.00 | 0.00 | 0.00 | 11 | 1013.0 |
| 20260830143425 | 85 | 147 | 0.0 | 0.0 | 0.00 | 0.00 | 0.00 | 11 | 1013.0 |
| 20260830142925 | 85 | 169 | 0.0 | 0.0 | 0.00 | 0.00 | 0.00 | 11 | 1013.0 |
| 20260830142426 | 85 | 141 | 0.0 | 0.0 | 0.00 | 0.00 | 0.00 | 11 | 1013.0 |
| 20260830141922 | 86 | 160 | 0.0 | 0.0 | 0.00 | 0.00 | 0.00 | 11 | 1013.0 |
| 20260830141425 | 86 | 141 | 0.0 | 0.0 | 0.00 | 0.00 | 0.00 | 11 | 1013.0 |
| 20260830140925 | 86 | 155 | 0.0 | 0.0 | 0.00 | 0.00 | 0.00 | 11 | 1013.0 |
| 20260830140422 | 87 | 168 | 0.0 | 0.0 | 0.00 | 0.00 | 0.00 | 10 | 1013.0 |
| 20260830135925 | 87 | 167 | 0.0 | 0.0 | 0.00 | 0.00 | 0.00 | 10 | 1013.0 |
| 20260830135422 | 87 | 158 | 0.0 | 0.0 | 0.00 | 0.00 | 0.00 | 10 | 1013.0 |
| 20260830134925 | 87 | 160 | 0.0 | 0.0 | 0.00 | 0.00 | 0.00 | 10 | 1013.0 |
| 20260830134422 | 87 | 168 | 0.0 | 0.0 | 0.00 | 0.00 | 0.00 | 10 | 1013.0 |
| 20260830133422 | 87 | 162 | 0.0 | 0.0 | 0.00 | 0.00 | 0.00 | 10 | 1013.0 |
| 20260830132925 | 87 | 143 | 0.0 | 0.0 | 0.00 | 0.00 | 0.00 | 10 | 1013.0 |
| 20260830132422 | 87 | 168 | 0.0 | 0.0 | 0.00 | 0.00 | 0.00 | 10 | 1013.0 |
| 20260830130926 | 88 | 153 | 0.0 | 0.0 | 0.00 | 0.00 | 0.00 | 10 | 1013.0 |
| 20260830130422 | 88 | 169 | 0.0 | 0.0 | 0.00 | 0.00 | 0.00 | 10 | 1013.0 |
| 20260830125925 | 89 | 141 | 0.0 | 0.0 | 0.00 | 0.00 | 0.00 | 10 | 1013.0 |
| 20260830125422 | 88 | 159 | 0.0 | 0.0 | 0.00 | 0.00 | 0.00 | 10 | 1013.0 |
| 20260830124922 | 89 | 166 | 0.0 | 0.0 | 0.00 | 0.00 | 0.00 | 10 | 1013.0 |
| 20260830124426 | 88 | 168 | 0.0 | 0.0 | 0.00 | 0.00 | 0.00 | 10 | 1013.0 |
| 20260830123925 | 88 | 143 | 0.0 | 0.0 | 0.00 | 0.00 | 0.00 | 10 | 1014.0 |
| 20260830123422 | 87 | 164 | 0.0 | 0.0 | 0.00 | 0.00 | 0.00 | 10 | 1014.0 |
| 20260830122926 | 87 | 142 | 0.0 | 0.0 | 0.00 | 0.00 | 0.00 | 10 | 1014.0 |
| 20260830122426 | 86 | 153 | 0.0 | 0.0 | 0.00 | 0.00 | 0.00 | 11 | 1014.0 |
| 20260830121922 | 86 | 142 | 0.0 | 0.0 | 0.00 | 0.00 | 0.00 | 11 | 1014.0 |
| 20260830121422 | 86 | 168 | 0.0 | 0.0 | 0.00 | 0.00 | 0.00 | 11 | 1014.0 |
| 20260830120922 | 86 | 144 | 0.0 | 0.0 | 0.00 | 0.00 | 0.00 | 11 | 1014.0 |
| 20260830120425 | 86 | 169 | 0.0 | 0.0 | 0.00 | 0.00 | 0.00 | 11 | 1014.0 |
| 20260830115922 | 86 | 145 | 0.0 | 0.0 | 0.00 | 0.00 | 0.00 | 11 | 1014.0 |
| 20260830115426 | 86 | 167 | 0.0 | 0.0 | 0.00 | 0.00 | 0.00 | 11 | 1014.0 |
| 20260830114922 | 85 | 142 | 0.0 | 0.0 | 0.00 | 0.00 | 0.00 | 11 | 1014.0 |
| 20260830113426 | 85 | 153 | 0.0 | 0.0 | 0.00 | 0.00 | 0.00 | 11 | 1014.0 |
| 20260830112926 | 85 | 146 | 0.0 | 0.0 | 0.00 | 0.00 | 0.00 | 11 | 1014.0 |
| 20260830112426 | 85 | 161 | 0.0 | 0.0 | 0.00 | 0.00 | 0.00 | 11 | 1014.0 |
| 20260830111926 | 85 | 167 | 0.0 | 0.0 | 0.00 | 0.00 | 0.00 | 11 | 1014.0 |
| 20260830111425 | 85 | 165 | 0.0 | 0.0 | 0.00 | 0.00 | 0.00 | 11 | 1014.0 |
| 20260830110925 | 85 | 161 | 0.0 | 0.0 | 0.00 | 0.00 | 0.00 | 11 | 1014.0 |
| 20260830110425 | 86 | 145 | 0.0 | 0.0 | 0.00 | 0.00 | 0.00 | 11 | 1014.0 |
| 20260830105925 | 86 | 141 | 0.0 | 0.0 | 0.00 | 0.00 | 0.00 | 11 | 1014.0 |
| 20260830105422 | 85 | 143 | 0.0 | 0.0 | 0.00 | 0.00 | 0.00 | 11 | 1014.0 |
| 20260830104926 | 85 | 146 | 0.0 | 0.0 | 0.00 | 0.00 | 0.00 | 11 | 1014.0 |
| 20260830104426 | 85 | 143 | 0.0 | 0.0 | 0.00 | 0.00 | 0.00 | 11 | 1014.0 |
| 20260830103925 | 85 | 169 | 0.0 | 0.0 | 0.00 | 0.00 | 0.00 | 11 | 1014.0 |
| 20260830103425 | 85 | 151 | 0.0 | 0.0 | 0.00 | 0.00 | 0.00 | 11 | 1014.0 |
| 20260830102926 | 85 | 145 | 0.0 | 0.0 | 0.00 | 0.00 | 0.00 | 11 | 1014.0 |
| 20260830102426 | 85 | 141 | 0.0 | 0.0 | 0.00 | 0.00 | 0.00 | 11 | 1014.0 |
| 20260830101925 | 85 | 168 | 0.0 | 0.0 | 0.00 | 0.00 | 0.00 | 11 | 1014.0 |
| 20260830101425 | 85 | 147 | 0.0 | 0.0 | 0.00 | 0.00 | 0.00 | 11 | 1014.0 |
| 20260830100925 | 85 | 161 | 0.0 | 0.0 | 0.00 | 0.00 | 0.00 | 11 | 1014.0 |
| 20260830100422 | 84 | 156 | 0.0 | 0.0 | 0.00 | 0.00 | 0.00 | 11 | 1014.0 |
| 20260830095926 | 84 | 147 | 0.0 | 0.0 | 0.00 | 0.00 | 0.00 | 11 | 1014.0 |
| 20260830095427 | 84 | 142 | 0.0 | 0.0 | 0.00 | 0.00 | 0.00 | 11 | 1014.0 |
| 20260830094925 | 84 | 168 | 0.0 | 0.0 | 0.00 | 0.00 | 0.00 | 11 | 1014.0 |
| 20260830094426 | 84 | 146 | 0.0 | 0.0 | 0.00 | 0.00 | 0.00 | 11 | 1014.0 |
| 20260830093922 | 84 | 169 | 0.0 | 0.0 | 0.00 | 0.00 | 0.00 | 11 | 1014.0 |
| 20260830093426 | 85 | 145 | 0.0 | 0.0 | 0.00 | 0.00 | 0.00 | 11 | 1014.0 |
| 20260830092922 | 84 | 152 | 0.0 | 0.0 | 0.00 | 0.00 | 0.00 | 11 | 1014.0 |
| 20260830092426 | 84 | 144 | 0.0 | 0.0 | 0.00 | 0.00 | 0.00 | 11 | 1014.0 |
| 20260830091922 | 84 | 164 | 0.0 | 0.0 | 0.00 | 0.00 | 0.00 | 11 | 1014.0 |
| 20260830091422 | 84 | 143 | 0.0 | 0.0 | 0.00 | 0.00 | 0.00 | 11 | 1014.0 |
| 20260830090922 | 83 | 169 | 0.0 | 0.0 | 0.00 | 0.00 | 0.00 | 11 | 1014.0 |
| 20260830090426 | 83 | 143 | 0.0 | 0.0 | 0.00 | 0.00 | 0.00 | 11 | 1014.0 |
| 20260830085926 | 83 | 169 | 0.0 | 0.0 | 0.00 | 0.00 | 0.00 | 11 | 1014.0 |
| 20260830085426 | 82 | 145 | 0.0 | 0.0 | 0.00 | 0.00 | 0.00 | 11 | 1014.0 |
| 20260830084926 | 82 | 150 | 0.0 | 0.0 | 0.00 | 0.00 | 0.00 | 11 | 1014.0 |
| 20260830084422 | 82 | 146 | 0.0 | 0.0 | 0.00 | 0.00 | 0.00 | 11 | 1014.0 |
| 20260830083922 | 82 | 144 | 0.0 | 0.0 | 0.00 | 0.00 | 0.00 | 11 | 1014.0 |
| 20260830083422 | 82 | 143 | 0.0 | 0.0 | 0.00 | 0.00 | 0.00 | 11 | 1014.0 |
| 20260830082925 | 81 | 144 | 0.0 | 0.0 | 0.00 | 0.00 | 0.00 | 11 | 1014.0 |